This demonstration page uses our WeatherBlox Daily Observations layout. Learn more.

Left ArrowRight Arrow

Hourly Observations for July 29, 2022

Temp ( °F °C ) Dew Point ( °F °C ) Humidity (%) Winds ( mph kmh ) Pressure ( in mb ) Visibility ( mi km ) Precip ( " mm )
12:53 am 00:53 Mostly Clear 88 31.1 68 20 52 52 S 8 13 29.91 1013 10 16 0.00 0.00
1:53 am 01:53 Mostly Clear 87 30.6 69 20.6 55 55 S 9 15 29.93 1013 10 16 0.00 0.00
2:53 am 02:53 Mostly Clear 86 30 69 20.6 57 57 S 9 15 29.92 1013 10 16 0.00 0.00
3:53 am 03:53 Mostly Clear 85 29.4 70 21.1 61 61 S 9 15 29.93 1014 10 16 0.00 0.00
4:53 am 04:53 Mostly Clear 84 28.9 70 21.1 63 63 S 10 17 29.93 1014 10 16 0.00 0.00
5:53 am 05:53 Mostly Clear 83 28.3 70 21.1 65 65 S 8 13 29.94 1014 10 16 0.00 0.00
6:53 am 06:53 Mostly Sunny 83 28.3 70 21.1 65 65 S 7 11 29.96 1014 10 16 0.00 0.00
7:53 am 07:53 Mostly Sunny 83 28.3 69 20.6 63 63 S 7 11 29.97 1015 10 16 0.00 0.00
8:53 am 08:53 Mostly Sunny 86 30 69 20.6 57 57 SSW 8 13 29.98 1015 10 16 0.00 0.00
9:53 am 09:53 Mostly Sunny 88 31.1 70 21.1 55 55 SW 8 13 30.00 1016 10 16 0.00 0.00
10:53 am 10:53 Mostly Sunny 91 32.8 70 21.1 50 50 SW 10 17 30.00 1016 10 16 0.00 0.00
11:53 am 11:53 Sunny 93 33.9 70 21.1 47 47 VRB 3 6 29.99 1016 10 16 0.00 0.00
12:53 pm 12:53 Sunny 96 35.6 68 20 40 40 SW 8 13 29.98 1015 10 16 0.00 0.00
1:53 pm 13:53 Mostly Sunny 99 37.2 68 20 37 37 S 10 17 29.94 1014 10 16 0.00 0.00
2:53 pm 14:53 Partly Cloudy 100 37.8 66 18.9 33 33 SE 9 15 29.92 1013 10 16 0.00 0.00
3:53 pm 15:53 Partly Cloudy 99 37.2 64 17.8 32 32 SW 6 9 29.90 1013 10 16 0.00 0.00
4:53 pm 16:53 Mostly Cloudy 100 37.8 64 17.8 31 31 S 10 17 29.90 1013 10 16 0.00 0.00
5:41 pm 17:41 Mostly Cloudy 99 37.2 64 17.8 32 32 Calm 29.88 1012 10 16 0.00 0.00
5:53 pm 17:53 Mostly Cloudy with Light Rain 98 36.7 65 18.3 34 34 undefined N/A 29.89 1012 7 11 0.00 0.00
6:11 pm 18:11 Mostly Cloudy with Thunderstorms 90 32.2 71 21.7 54 54 N 12 19 29.90 1012 10 16 0.00 0.00
6:32 pm 18:32 Partly Cloudy 94 34.4 70 21.1 46 46 N 9 15 29.88 1012 10 16 0.00 0.00
6:53 pm 18:53 Partly Cloudy 94 34.4 70 21.1 46 46 NE 10 17 29.89 1012 10 16 0.00 0.00
7:53 pm 19:53 Partly Cloudy 95 35 70 21.1 44 44 VRB 5 7 29.89 1012 10 16 0.00 0.00
8:53 pm 20:53 Mostly Cloudy 95 35 68 20 41 41 VRB 6 9 29.92 1013 10 16 0.00 0.00
9:53 pm 21:53 Partly Cloudy 93 33.9 70 21.1 47 47 ENE 12 19 29.92 1013 10 16 0.00 0.00
10:53 pm 22:53 Mostly Cloudy 89 31.7 70 21.1 53 53 E 10 17 29.96 1015 10 16 0.00 0.00
11:53 pm 23:53 Mostly Cloudy 87 30.6 71 21.7 59 59 E 8 13 29.97 1015 10 16 0.00 0.00

Powered by AerisWeather